星链-2467 (STARLINK-2467 )

导读

STARLINK-2467是美国星链计划的低轨互联网通信卫星,于2021年4月7日发射入轨,属于SpaceX打造的Starlink星座组网卫星之一。它主要为全球偏远、网络基础设施薄弱区域提供低成本高速互联网接入服务,该卫星运行在近地轨道,是星链全球卫星互联网组网建设环节中的组成部分。

基本信息
目录编号:
48126
目录名称:
STARLINK-2467
国际标识:
2021-027AL
轨道中心:
EARTH
卫星名称:
星链-2467
卫星全名:
星链-2467 (STARLINK-2467 )
卫星状态:
在轨 (已飞行1983 天)
发射日期:
2021-04-07 UTC
国别 :
美国 (US)
星等 :
--
该卫星已列入 空间交会检测服务 Space Conjunction Data Service (SCDS) ,当前飞行风险评估等级: 无高风险
轨道信息
数据来源 国际轨道数据
星历时间: 2026-09-10T23:43:30+0800
18小时前
查看轨道信息
半长轴: 6848.898km
偏心率: 0.0001153
轨道倾角: 53.161°
近地点辐角 76.801°
升交点赤经 11.687°
平近点角 283.312°
近地点: 469.971km
远地点: 471.551km
周期: 94.014分钟
每日圈数: 15.31693
详细信息
固有亮度:
5
最大亮度:
2.5
卫星平台:
Starlink V1.0
覆盖范围:
全球
运营商:
太空探索技术公司
运营商所在国:
美国
制造商(研发单位):
太空探索技术公司
制造商所在国:
美国
使用方式:
暂无
卫星简介
星链(Starlink)计划是由太空探索技术公司(SpaceX)提出的一个巨型低轨卫星互联网星座项目,计划在2019年至2024年间在太空搭建由约1.2万颗卫星组成的“星链”网络,其中1584颗将部署在地球上空550千米处的近地轨道,并从2020年开始工作。该卫星仍在工作。
2D轨道图
3D轨道图
轨道高度分析图
轨道倾角分析图
轨道综合分析图
查看轨道综合分析图
与全量物体交会距离演化趋势
与全量物体交会风险概率演化趋势